TimeMST,TemperatureF,Dew PointF,Humidity,Sea Level PressureIn,VisibilityMPH,Wind Direction,Wind SpeedMPH,Gust SpeedMPH,PrecipitationIn,Events,Conditions,WindDirDegrees,DateUTC
12:53 AM,30.0,9.0,41,29.93,10.0,West,3.5,-,N/A,,Clear,280,2013-01-07 07:53:00
1:53 AM,24.1,9.0,53,29.94,10.0,WNW,5.8,-,N/A,,Clear,290,2013-01-07 08:53:00
2:53 AM,19.9,8.1,60,29.97,10.0,WNW,4.6,-,N/A,,Clear,300,2013-01-07 09:53:00
3:53 AM,23.0,9.0,55,29.98,10.0,WSW,4.6,-,N/A,,Clear,240,2013-01-07 10:53:00
4:53 AM,21.0,9.0,60,30.00,10.0,WNW,3.5,-,N/A,,Clear,290,2013-01-07 11:53:00
5:53 AM,24.1,12.9,62,29.98,10.0,WSW,8.1,-,N/A,,Clear,240,2013-01-07 12:53:00
6:53 AM,25.0,12.9,60,29.99,10.0,WSW,9.2,-,N/A,,Clear,240,2013-01-07 13:53:00
7:53 AM,28.0,12.9,53,29.96,10.0,Variable,3.5,-,N/A,,Clear,0,2013-01-07 14:53:00
8:53 AM,28.9,14.0,54,29.95,10.0,South,6.9,-,N/A,,Clear,170,2013-01-07 15:53:00
9:53 AM,28.9,16.0,58,29.97,10.0,SE,3.5,-,N/A,,Clear,130,2013-01-07 16:53:00
10:53 AM,36.0,18.0,48,29.90,10.0,SSE,5.8,-,N/A,,Clear,150,2013-01-07 17:53:00
11:53 AM,36.0,19.9,52,29.90,10.0,Calm,Calm,-,N/A,,Clear,0,2013-01-07 18:53:00
12:53 PM,37.0,19.9,50,29.84,10.0,Calm,Calm,-,N/A,,Clear,0,2013-01-07 19:53:00
1:53 PM,35.1,19.9,54,29.85,10.0,ESE,3.5,-,N/A,,Clear,110,2013-01-07 20:53:00
2:53 PM,32.0,19.0,59,29.87,10.0,SSE,4.6,-,N/A,,Clear,160,2013-01-07 21:53:00
4:53 PM,28.0,18.0,66,29.83,10.0,West,6.9,-,N/A,,Clear,260,2013-01-07 23:53:00
5:53 PM,26.1,16.0,66,29.80,10.0,South,4.6,-,N/A,,Clear,170,2013-01-08 00:53:00
6:53 PM,27.0,17.1,66,29.78,10.0,SSW,3.5,-,N/A,,Clear,200,2013-01-08 01:53:00
7:53 PM,27.0,16.0,63,29.75,10.0,SSW,3.5,-,N/A,,Overcast,210,2013-01-08 02:53:00
8:53 PM,30.0,17.1,59,29.73,10.0,Calm,Calm,-,N/A,,Overcast,0,2013-01-08 03:53:00
9:53 PM,33.1,16.0,50,29.73,10.0,West,3.5,-,N/A,,Overcast,280,2013-01-08 04:53:00
10:53 PM,32.0,16.0,52,29.69,10.0,NNW,5.8,-,N/A,,Mostly Cloudy,340,2013-01-08 05:53:00
11:53 PM,30.9,17.1,57,29.70,10.0,SW,6.9,-,N/A,,Clear,230,2013-01-08 06:53:00